GW0692 Weather Reports


Display with metric or nautical units.
time (UTC)temp
F
wind
direction
speed
MPH
gust
MPH
rain 1hr
in
rain 24hr
in
rain mn
in
humidity
%
barometer
mb
20260508132307 56 316 3.0 5.0 0.00 0.00 0.00 29 1019.8
20260508131802 55 247 2.0 2.0 0.00 0.00 0.00 30 1019.9
20260508131258 55 256 2.0 2.0 0.00 0.00 0.00 30 1019.7
20260508130754 54 249 0.0 2.0 0.00 0.00 0.00 31 1019.5
20260508130252 54 244 1.0 2.0 0.00 0.00 0.00 31 1019.4
20260508125748 53 245 0.0 2.0 0.00 0.00 0.00 32 1019.3
20260508125244 53 236 2.0 2.0 0.00 0.00 0.00 31 1019.2
20260508124742 52 260 2.0 2.0 0.00 0.00 0.00 31 1019.2
20260508124239 52 249 2.0 3.0 0.00 0.00 0.00 31 1019.0
20260508123738 52 252 1.0 2.0 0.00 0.00 0.00 32 1018.9
20260508123235 51 245 0.0 2.0 0.00 0.00 0.00 32 1019.3
20260508122731 51 235 3.0 3.0 0.00 0.00 0.00 33 1019.4
20260508122228 50 253 2.0 2.0 0.00 0.00 0.00 33 1019.0
20260508121726 49 260 1.0 2.0 0.00 0.00 0.00 33 1018.8
20260508121224 49 250 2.0 2.0 0.00 0.00 0.00 34 1019.0
20260508120721 49 293 2.0 3.0 0.00 0.00 0.00 34 1019.0
20260508120219 49 254 2.0 2.0 0.00 0.00 0.00 34 1018.8
20260508115716 49 240 3.0 3.0 0.00 0.00 0.00 34 1018.9
20260508115213 50 250 2.0 3.0 0.00 0.00 0.00 33 1019.0
20260508114710 50 255 2.0 3.0 0.00 0.00 0.00 33 1018.8
20260508114207 50 251 2.0 2.0 0.00 0.00 0.00 33 1018.5
20260508113703 50 250 3.0 3.0 0.00 0.00 0.00 33 1018.9
20260508113202 51 251 1.0 2.0 0.00 0.00 0.00 32 1018.7
20260508112658 52 251 0.0 0.0 0.00 0.00 0.00 31 1018.7
20260508112155 53 254 1.0 2.0 0.00 0.00 0.00 31 1018.5
20260508111651 52 254 5.0 7.0 0.00 0.00 0.00 31 1018.4
20260508111149 52 255 5.0 5.0 0.00 0.00 0.00 30 1018.5
20260508110646 52 248 0.0 0.0 0.00 0.00 0.00 30 1018.4
20260508110143 51 255 3.0 5.0 0.00 0.00 0.00 30 1018.3
20260508105637 51 256 4.0 5.0 0.00 0.00 0.00 30 1018.4
20260508105135 51 254 3.0 3.0 0.00 0.00 0.00 29 1018.7
20260508104632 51 253 3.0 5.0 0.00 0.00 0.00 30 1018.7
20260508104129 51 234 5.0 5.0 0.00 0.00 0.00 29 1018.7
20260508103626 51 232 5.0 5.0 0.00 0.00 0.00 29 1018.5
20260508103123 51 281 4.0 5.0 0.00 0.00 0.00 29 1018.5
20260508102620 51 281 5.0 9.0 0.00 0.00 0.00 28 1018.3
20260508102118 51 252 5.0 7.0 0.00 0.00 0.00 27 1018.5
20260508101615 51 260 5.0 7.0 0.00 0.00 0.00 27 1018.7
20260508101113 52 250 3.0 3.0 0.00 0.00 0.00 26 1018.3
20260508100610 52 254 5.0 7.0 0.00 0.00 0.00 26 1018.4
20260508100108 52 244 5.0 9.0 0.00 0.00 0.00 26 1018.5
20260508095604 52 256 5.0 7.0 0.00 0.00 0.00 25 1018.4
20260508095101 52 251 4.0 5.0 0.00 0.00 0.00 25 1018.5
20260508094558 52 299 4.0 5.0 0.00 0.00 0.00 25 1018.4
20260508094055 52 245 4.0 5.0 0.00 0.00 0.00 24 1018.7
20260508093552 52 280 4.0 7.0 0.00 0.00 0.00 24 1018.4
20260508093050 52 277 6.0 7.0 0.00 0.00 0.00 24 1018.3
20260508092547 52 254 5.0 9.0 0.00 0.00 0.00 24 1018.2
20260508092046 53 254 6.0 7.0 0.00 0.00 0.00 24 1017.9
20260508091542 53 259 5.0 9.0 0.00 0.00 0.00 24 1018.0
20260508091039 53 248 6.0 9.0 0.00 0.00 0.00 23 1018.4
20260508090537 53 311 7.0 10.0 0.00 0.00 0.00 24 1018.4
20260508090034 53 262 6.0 9.0 0.00 0.00 0.00 23 1018.5
20260508085530 52 239 4.0 5.0 0.00 0.00 0.00 24 1018.5
20260508085027 52 270 5.0 7.0 0.00 0.00 0.00 24 1018.5
20260508084524 52 251 4.0 7.0 0.00 0.00 0.00 24 1018.5
20260508084021 53 239 5.0 7.0 0.00 0.00 0.00 23 1018.4
20260508083519 52 270 7.0 10.0 0.00 0.00 0.00 23 1018.4
20260508083015 52 253 5.0 7.0 0.00 0.00 0.00 23 1018.4
20260508082511 51 247 4.0 5.0 0.00 0.00 0.00 23 1018.8
20260508082009 51 235 3.0 3.0 0.00 0.00 0.00 23 1018.5
20260508081506 51 272 5.0 7.0 0.00 0.00 0.00 23 1018.7
20260508081001 51 246 4.0 5.0 0.00 0.00 0.00 23 1018.7
20260508080500 51 256 5.0 5.0 0.00 0.00 0.00 23 1018.7
20260508075956 51 242 4.0 5.0 0.00 0.00 0.00 23 1018.9
20260508075453 51 272 3.0 3.0 0.00 0.00 0.00 23 1019.0
20260508074951 52 258 4.0 5.0 0.00 0.00 0.00 22 1018.7
20260508074449 52 274 4.0 5.0 0.00 0.00 0.00 22 1019.0
20260508073945 53 265 4.0 7.0 0.00 0.00 0.00 22 1019.0
20260508073443 53 248 4.0 7.0 0.00 0.00 0.00 21 1019.2
20260508072940 53 267 6.0 9.0 0.00 0.00 0.00 21 1018.9
20260508072436 53 253 5.0 10.0 0.00 0.00 0.00 21 1019.0
20260508071933 53 278 7.0 9.0 0.00 0.00 0.00 21 1019.3
20260508071431 54 259 4.0 5.0 0.00 0.00 0.00 20 1019.2
20260508070929 54 266 5.0 7.0 0.00 0.00 0.00 20 1019.0
20260508070426 54 256 5.0 7.0 0.00 0.00 0.00 20 1019.2
20260508065924 54 265 4.0 5.0 0.00 0.00 0.00 20 1019.2
20260508065422 54 232 5.0 7.0 0.00 0.00 0.00 20 1019.3
20260508064920 54 232 6.0 10.0 0.00 0.00 0.00 20 1019.2
20260508064417 54 270 4.0 5.0 0.00 0.00 0.00 20 1019.2
20260508063915 54 255 4.0 7.0 0.00 0.00 0.00 20 1019.2
20260508063412 53 284 4.0 5.0 0.00 0.00 0.00 20 1019.0
20260508062909 53 306 5.0 7.0 0.00 0.00 0.00 20 1018.9
20260508062407 53 261 4.0 5.0 0.00 0.00 0.00 20 1019.2
20260508061904 54 242 4.0 5.0 0.00 0.00 0.00 19 1019.0
20260508061401 54 260 5.0 7.0 0.00 0.00 0.00 19 1019.0
20260508060857 54 296 5.0 7.0 0.00 0.00 0.00 19 1019.2
20260508060355 54 265 7.0 9.0 0.00 0.00 0.00 19 1019.2
20260508055850 54 275 7.0 9.0 0.00 0.00 0.00 19 1019.0
20260508055348 54 269 7.0 9.0 0.00 0.00 0.00 20 1019.3
20260508054844 55 280 6.0 9.0 0.00 0.00 0.00 20 1019.0
20260508054341 54 315 7.0 9.0 0.00 0.00 0.00 20 1019.2
20260508053838 54 254 5.0 7.0 0.00 0.00 0.00 21 1019.0
20260508053336 54 299 8.0 10.0 0.00 0.00 0.00 21 1019.0
20260508052833 54 291 5.0 5.0 0.00 0.00 0.00 21 1019.0
20260508052330 54 269 7.0 10.0 0.00 0.00 0.00 21 1019.0
20260508051826 54 264 8.0 10.0 0.00 0.00 0.00 21 1019.2
20260508051322 55 263 6.0 9.0 0.00 0.00 0.00 21 1019.3
20260508050818 55 265 7.0 9.0 0.00 0.00 0.00 21 1019.4
20260508050316 55 227 6.0 7.0 0.00 0.00 0.00 20 1019.2
20260508045811 55 251 4.0 5.0 0.00 0.00 0.00 20 1019.4
20260508045309 55 258 6.0 10.0 0.00 0.00 0.00 20 1019.4
20260508044807 55 296 7.0 9.0 0.00 0.00 0.00 20 1019.4
20260508044303 55 240 7.0 9.0 0.00 0.00 0.00 20 1019.0
20260508043759 55 294 7.0 9.0 0.00 0.00 0.00 20 1019.4
20260508043257 55 249 6.0 7.0 0.00 0.00 0.00 20 1019.2
20260508042753 55 261 7.0 12.0 0.00 0.00 0.00 20 1019.3
20260508042251 55 245 5.0 7.0 0.00 0.00 0.00 20 1019.5
20260508041747 56 268 6.0 7.0 0.00 0.00 0.00 20 1019.3
20260508041244 56 263 4.0 5.0 0.00 0.00 0.00 20 1019.3
20260508040740 56 270 6.0 7.0 0.00 0.00 0.00 20 1019.2
20260508040238 56 317 4.0 5.0 0.00 0.00 0.00 20 1019.3
20260508035735 56 246 5.0 7.0 0.00 0.00 0.00 20 1019.3
20260508035232 56 342 2.0 3.0 0.00 0.00 0.00 19 1019.0
20260508034729 53 286 4.0 5.0 0.00 0.00 0.00 21 1019.4
20260508034226 52 254 0.0 0.0 0.00 0.00 0.00 22 1019.4
20260508033723 53 284 2.0 2.0 0.00 0.00 0.00 21 1018.9
20260508033221 55 245 2.0 3.0 0.00 0.00 0.00 21 1019.0
20260508032719 55 254 0.0 0.0 0.00 0.00 0.00 21 1019.2
20260508032215 54 238 3.0 3.0 0.00 0.00 0.00 21 1018.9
20260508031712 54 246 2.0 3.0 0.00 0.00 0.00 21 1018.9
20260508031208 55 258 1.0 2.0 0.00 0.00 0.00 20 1018.8
20260508030705 56 276 3.0 5.0 0.00 0.00 0.00 19 1018.7
20260508030203 56 270 4.0 5.0 0.00 0.00 0.00 19 1018.8
20260508025659 56 272 4.0 5.0 0.00 0.00 0.00 20 1018.7
20260508025156 55 259 3.0 5.0 0.00 0.00 0.00 20 1018.5
20260508024651 55 259 4.0 5.0 0.00 0.00 0.00 20 1018.2
20260508024149 55 258 2.0 3.0 0.00 0.00 0.00 20 1018.4
20260508023645 56 278 3.0 3.0 0.00 0.00 0.00 19 1018.3
20260508023143 56 265 5.0 7.0 0.00 0.00 0.00 19 1018.4
20260508022638 56 249 4.0 5.0 0.00 0.00 0.00 19 1018.3
20260508022136 57 245 3.0 3.0 0.00 0.00 0.00 19 1018.3
20260508021632 57 247 5.0 7.0 0.00 0.00 0.00 19 1018.2
20260508021127 57 265 4.0 5.0 0.00 0.00 0.00 18 1018.0
20260508020626 57 241 3.0 3.0 0.00 0.00 0.00 18 1018.0
20260508020123 58 254 4.0 5.0 0.00 0.00 0.00 18 1017.9
20260508015620 58 283 3.0 3.0 0.00 0.00 0.00 18 1018.3
20260508015117 59 262 3.0 3.0 0.00 0.00 0.00 18 1018.0
20260508014613 59 262 2.0 2.0 0.00 0.00 0.00 17 1018.0
20260508014110 60 249 4.0 5.0 0.00 0.00 0.00 17 1018.0
20260508013606 60 250 4.0 5.0 0.00 0.00 0.00 17 1018.0
20260508013103 61 280 6.0 7.0 0.00 0.00 0.00 17 1017.8
20260508012600 61 256 4.0 5.0 0.00 0.00 0.00 16 1017.8
20260508012057 61 226 5.0 7.0 0.00 0.00 0.00 16 1017.8
20260508011556 62 287 3.0 5.0 0.00 0.00 0.00 16 1017.5
20260508011053 62 310 4.0 5.0 0.00 0.00 0.00 16 1017.5
20260508010549 62 243 5.0 5.0 0.00 0.00 0.00 16 1018.0
20260508010047 63 241 6.0 9.0 0.00 0.00 0.00 15 1017.8
20260508005543 63 255 3.0 3.0 0.00 0.00 0.00 15 1017.5
20260508005040 64 265 4.0 5.0 0.00 0.00 0.00 15 1017.9
20260508004536 65 242 4.0 5.0 0.00 0.00 0.00 15 1017.5
20260508004033 65 253 3.0 5.0 0.00 0.00 0.00 14 1017.7
20260508003529 66 301 5.0 5.0 0.00 0.00 0.00 14 1017.7
20260508003027 66 326 4.0 5.0 0.00 0.00 0.00 14 1017.7
20260508002523 66 225 5.0 7.0 0.00 0.00 0.00 14 1017.5
20260508002021 66 276 6.0 7.0 0.00 0.00 0.00 14 1017.4
20260508001516 66 254 4.0 5.0 0.00 0.00 0.00 13 1017.5
20260508001013 66 2 7.0 9.0 0.00 0.00 0.00 13 1017.8
20260508000509 66 300 5.0 7.0 0.00 0.00 0.00 13 1017.7
20260508000006 67 231 6.0 7.0 0.00 0.00 0.00 13 1017.8
20260507235502 66 301 5.0 7.0 0.00 0.00 0.00 13 1017.9
20260507235000 67 290 4.0 5.0 0.00 0.00 0.00 12 1017.8
20260507234456 67 250 5.0 7.0 0.00 0.00 0.00 13 1017.7
20260507233953 66 247 3.0 3.0 0.00 0.00 0.00 13 1017.7
20260507233450 67 264 5.0 5.0 0.00 0.00 0.00 13 1017.7
20260507232948 67 255 6.0 9.0 0.00 0.00 0.00 13 1017.9
20260507232444 67 251 5.0 7.0 0.00 0.00 0.00 12 1017.9
20260507231942 66 292 5.0 7.0 0.00 0.00 0.00 13 1018.0
20260507231438 66 216 9.0 12.0 0.00 0.00 0.00 13 1017.9
20260507230935 66 254 11.0 21.0 0.00 0.00 0.00 13 1018.0
20260507230432 67 230 5.0 7.0 0.00 0.00 0.00 14 1018.0
20260507225932 66 276 7.0 10.0 0.00 0.00 0.00 14 1017.8
20260507225429 66 244 6.0 9.0 0.00 0.00 0.00 15 1018.0
20260507224925 66 232 8.0 10.0 0.00 0.00 0.00 16 1018.3
20260507224421 67 268 3.0 3.0 0.00 0.00 0.00 15 1018.2
20260507223918 68 308 5.0 7.0 0.00 0.00 0.00 15 1018.2
20260507223414 68 262 4.0 5.0 0.00 0.00 0.00 16 1018.5
20260507222911 67 276 3.0 3.0 0.00 0.00 0.00 16 1018.5
20260507222408 67 236 13.0 19.0 0.00 0.00 0.00 16 1018.2
20260507221905 68 264 9.0 12.0 0.00 0.00 0.00 16 1018.4
20260507221401 67 270 4.0 5.0 0.00 0.00 0.00 17 1018.2
20260507220857 66 264 4.0 5.0 0.00 0.00 0.00 19 1018.0
20260507220355 69 275 6.0 9.0 0.00 0.00 0.00 18 1018.4
20260507215852 68 290 8.0 10.0 0.00 0.00 0.00 18 1018.5
20260507215348 67 310 6.0 9.0 0.00 0.00 0.00 20 1018.4
20260507214845 65 250 5.0 7.0 0.00 0.00 0.00 21 1018.7
20260507214343 66 270 7.0 12.0 0.00 0.00 0.00 21 1018.8
20260507213838 66 247 3.0 5.0 0.00 0.00 0.00 22 1018.8
20260507213335 66 264 4.0 5.0 0.00 0.00 0.00 22 1018.8
20260507212832 65 249 5.0 5.0 0.00 0.00 0.00 22 1018.8
20260507212327 65 228 5.0 9.0 0.00 0.00 0.00 23 1018.7
20260507211824 65 288 5.0 5.0 0.00 0.00 0.00 23 1019.0
20260507211321 66 234 7.0 9.0 0.00 0.00 0.00 22 1019.2
20260507210818 65 240 6.0 9.0 0.00 0.00 0.00 24 1019.3
20260507210315 65 271 6.0 9.0 0.00 0.00 0.00 23 1019.4
20260507205811 65 274 4.0 5.0 0.00 0.00 0.00 23 1019.7
20260507205309 64 301 5.0 7.0 0.00 0.00 0.00 25 1019.5
20260507204804 67 262 3.0 3.0 0.00 0.00 0.00 24 1019.8
20260507204302 66 245 3.0 5.0 0.00 0.00 0.00 23 1019.7
20260507203800 64 243 4.0 5.0 0.00 0.00 0.00 23 1019.5
20260507203258 64 250 3.0 3.0 0.00 0.00 0.00 25 1019.9
20260507202753 63 232 4.0 5.0 0.00 0.00 0.00 25 1019.9
20260507202249 66 243 7.0 10.0 0.00 0.00 0.00 25 1019.8
20260507201744 64 277 3.0 5.0 0.00 0.00 0.00 26 1019.9
20260507201241 65 268 6.0 9.0 0.00 0.00 0.00 25 1020.0
20260507200738 65 221 1.0 2.0 0.00 0.00 0.00 25 1019.9
20260507200234 64 282 4.0 5.0 0.00 0.00 0.00 25 1019.7
20260507195730 64 339 3.0 3.0 0.00 0.00 0.00 25 1020.0
20260507195228 64 229 4.0 7.0 0.00 0.00 0.00 25 1020.2
20260507194725 65 243 5.0 7.0 0.00 0.00 0.00 25 1020.0
20260507194220 62 228 4.0 5.0 0.00 0.00 0.00 27 1020.2
20260507193717 63 238 6.0 7.0 0.00 0.00 0.00 27 1020.4
20260507193214 61 253 3.0 5.0 0.00 0.00 0.00 27 1020.4
20260507192710 63 271 9.0 12.0 0.00 0.00 0.00 27 1020.7
20260507192207 61 223 4.0 5.0 0.00 0.00 0.00 28 1020.5
20260507191703 63 261 3.0 5.0 0.00 0.00 0.00 27 1020.8
20260507191201 61 286 5.0 7.0 0.00 0.00 0.00 27 1020.7
20260507190657 59 279 4.0 9.0 0.00 0.00 0.00 28 1020.8
20260507190156 61 257 2.0 3.0 0.00 0.00 0.00 25 1020.7
20260507185654 62 256 7.0 12.0 0.00 0.00 0.00 26 1020.8
20260507185150 60 322 2.0 3.0 0.00 0.00 0.00 28 1021.0
20260507184648 61 226 11.0 14.0 0.00 0.00 0.00 27 1020.9
20260507184146 60 263 7.0 12.0 0.00 0.00 0.00 28 1021.0
20260507183642 61 261 7.0 7.0 0.00 0.00 0.00 28 1021.5
20260507183139 60 227 9.0 14.0 0.00 0.00 0.00 29 1021.4
20260507182636 59 315 7.0 10.0 0.00 0.00 0.00 29 1021.4
20260507182132 59 235 5.0 7.0 0.00 0.00 0.00 29 1021.3
20260507181628 59 282 6.0 7.0 0.00 0.00 0.00 29 1021.4
20260507181124 59 304 5.0 7.0 0.00 0.00 0.00 29 1021.4
20260507180621 60 247 5.0 5.0 0.00 0.00 0.00 29 1021.5
20260507180118 58 248 3.0 3.0 0.00 0.00 0.00 31 1021.4
20260507175614 58 251 4.0 5.0 0.00 0.00 0.00 32 1021.3
20260507175112 58 246 3.0 3.0 0.00 0.00 0.00 33 1021.5
20260507174609 58 302 3.0 3.0 0.00 0.00 0.00 32 1021.7
20260507174106 59 314 4.0 9.0 0.00 0.00 0.00 32 1021.5
20260507173603 58 276 2.0 3.0 0.00 0.00 0.00 33 1021.5
20260507173100 60 267 3.0 3.0 0.00 0.00 0.00 32 1021.4
20260507172556 57 243 2.0 3.0 0.00 0.00 0.00 35 1021.5
20260507172053 58 313 4.0 7.0 0.00 0.00 0.00 33 1021.9
20260507171548 57 315 5.0 5.0 0.00 0.00 0.00 34 1021.9
20260507171046 57 235 1.0 2.0 0.00 0.00 0.00 35 1022.0
20260507170543 58 217 5.0 7.0 0.00 0.00 0.00 34 1022.2
20260507170040 57 294 6.0 9.0 0.00 0.00 0.00 35 1022.2
20260507165535 56 269 6.0 7.0 0.00 0.00 0.00 34 1021.9
20260507165032 56 200 2.0 3.0 0.00 0.00 0.00 35 1021.9
20260507164528 56 273 4.0 5.0 0.00 0.00 0.00 35 1022.2
20260507164026 54 269 2.0 3.0 0.00 0.00 0.00 36 1022.0
20260507163522 56 251 1.0 2.0 0.00 0.00 0.00 35 1022.0
20260507163021 55 354 3.0 3.0 0.00 0.00 0.00 36 1022.2
20260507162515 55 202 3.0 3.0 0.00 0.00 0.00 35 1022.0
20260507162012 54 244 3.0 3.0 0.00 0.00 0.00 37 1022.3
20260507161509 53 279 4.0 5.0 0.00 0.00 0.00 37 1022.5
20260507161005 53 223 3.0 3.0 0.00 0.00 0.00 38 1022.3
20260507160501 52 243 2.0 2.0 0.00 0.00 0.00 36 1022.4
20260507155957 52 247 1.0 2.0 0.00 0.00 0.00 36 1022.3
20260507155453 52 248 2.0 3.0 0.00 0.00 0.00 36 1022.2
20260507154950 52 276 4.0 5.0 0.00 0.00 0.00 37 1022.4
20260507154447 52 233 6.0 7.0 0.00 0.00 0.00 38 1022.4
20260507153944 52 115 3.0 3.0 0.00 0.00 0.00 36 1022.4
20260507153441 51 237 2.0 3.0 0.00 0.00 0.00 37 1022.8
20260507152937 51 238 2.0 3.0 0.00 0.00 0.00 40 1022.7
20260507152433 52 275 4.0 5.0 0.00 0.00 0.00 41 1022.9
20260507151929 50 274 5.0 5.0 0.00 0.00 0.00 42 1022.5
20260507151426 49 287 5.0 5.0 0.00 0.00 0.00 44 1022.8
20260507150923 50 60 3.0 3.0 0.00 0.00 0.00 45 1022.7
20260507150420 49 287 1.0 2.0 0.00 0.00 0.00 46 1022.7
20260507145916 49 336 3.0 5.0 0.00 0.00 0.00 46 1022.8
20260507145412 50 327 1.0 2.0 0.00 0.00 0.00 47 1022.4
20260507144909 49 14 1.0 3.0 0.00 0.00 0.00 48 1022.5
20260507144406 48 244 1.0 2.0 0.00 0.00 0.00 49 1022.8
20260507143903 47 339 2.0 3.0 0.00 0.00 0.00 51 1022.9
20260507143401 47 300 4.0 7.0 0.00 0.00 0.00 51 1022.8
20260507142857 47 291 1.0 2.0 0.00 0.00 0.00 51 1022.8
20260507142353 47 251 0.0 2.0 0.00 0.00 0.00 52 1022.7
20260507141850 46 311 0.0 2.0 0.00 0.00 0.00 55 1022.8
20260507141346 46 342 3.0 5.0 0.00 0.00 0.00 55 1022.9
20260507140843 46 39 1.0 3.0 0.00 0.00 0.00 56 1022.7
20260507140340 46 253 0.0 2.0 0.00 0.00 0.00 57 1022.8
20260507135838 44 250 0.0 2.0 0.00 0.00 0.00 58 1022.8
20260507135334 44 243 2.0 3.0 0.00 0.00 0.00 57 1022.7
20260507134832 44 282 1.0 3.0 0.00 0.00 0.00 58 1022.7
20260507134327 43 252 0.0 2.0 0.00 0.00 0.00 59 1022.7
20260507133824 42 326 5.0 7.0 0.00 0.00 0.00 59 1022.5
20260507133319 44 291 3.0 3.0 0.00 0.00 0.00 58 1022.7
20260507132818 43 241 0.0 0.0 0.00 0.00 0.00 59 1022.3